[[{"header":{"parameterUnit":"m.s-1","parameterCategory":1,"la1":30.2991,"la2":30.254,"lo1":-89.0895,"lo2":-89.0444,"dy":0.0017,"dx":0.0017,"nx":28,"ny":28,"refTime":"2024-09-25T09:00:00:Z","depth":0,"parameterNumber":2,"parameterNumberName":"U-component_of_WINDS"},"data":[0,0,0,0,0,0,0,0,0,0,0,0,0,0,0,0,0,0,0,0,0,0,0,0,0,0,0,0,0,0,0,0,0,0,0,0,0,0,0,0,0,0,0,0,0,0,0,0,0,0,0,0,0,0,0,0,0,0,-2.6738,-2.674,0,-2.6871,-2.6872,-2.6874,-2.6828,-2.6825,-2.6822,-2.6819,-2.6956,-2.6962,-2.6969,0,0,0,0,0,0,0,0,0,0,0,0,0,-2.6447,-2.6452,-2.6738,-2.674,-2.6742,-2.687,-2.6872,-2.6874,-2.6828,-2.6825,-2.6821,-2.6818,-2.6954,-2.6962,-2.6969,0,0,0,0,0,0,0,0,0,0,0,0,0,-2.6576,-2.6454,-2.6738,-2.6734,-2.6735,-2.687,-2.6872,-2.6875,-2.6829,-2.6825,-2.682,-2.6816,-2.6951,-2.6961,-2.697,-2.7117,0,0,-2.6999,-2.7004,0,0,0,0,0,0,0,0,-2.6569,-2.6587,-2.6733,-2.6735,-2.6736,-2.6828,-2.682,-2.6956,-2.683,-2.6793,-2.6819,-2.6814,-2.6917,-2.6929,-2.6964,-2.7124,-2.7129,-2.7,-2.7006,-2.701,-2.7013,0,0,0,0,0,0,0,-2.656,-2.6581,-2.6791,-2.6735,-2.6737,-2.6726,-2.674,-2.6845,-2.6878,-2.6796,-2.6793,-2.6809,-2.6917,-2.6955,-2.6967,-2.7132,-2.7,-2.7009,-2.7014,-2.7018,-2.7419,-2.7424,0,0,0,0,0,0,-2.655,-2.6573,-2.6786,-2.6795,-2.664,-2.6735,-2.675,-2.6803,-2.6877,-2.6884,-2.6813,-2.6807,-2.6941,-2.6956,-2.6971,-2.715,-2.701,-2.7019,-2.7025,-2.7415,-2.7421,-2.7426,0,0,0,0,0,0,-2.6544,-2.6569,-2.6781,-2.6683,-2.6709,-2.6745,-2.6805,-2.6808,-2.6846,-2.689,-2.6896,-2.6845,-2.6938,-2.6958,-2.7081,-2.7154,-2.7023,-2.7032,-2.7409,-2.7416,-2.7423,-2.7506,0,0,0,0,0,0,-2.6536,-2.6567,-2.6623,-2.6685,-2.6715,-2.6889,-2.6809,-2.6814,-2.6862,-2.6855,-2.6922,-2.6928,-2.6936,-2.7067,-2.7091,-2.7164,-2.704,-2.7403,-2.7412,-2.7421,-2.7497,-2.7516,-2.7531,0,0,0,0,0,-2.6525,-2.6642,-2.6626,-2.6652,-2.6786,-2.6893,-2.691,-2.6916,-2.6868,-2.6925,-2.6953,-2.6926,-2.7141,-2.708,-2.7107,-2.7184,-2.7398,-2.7409,-2.742,-2.749,-2.7512,-2.7531,0,0,0,0,0,0,-2.6588,-2.665,-2.6634,-2.6773,-2.6828,-2.6885,-2.6957,-2.6939,-2.701,-2.7,-2.7005,-2.702,-2.7148,-2.7178,-2.7109,-2.733,-2.7263,-2.7279,-2.7307,-2.7328,-2.7345,-2.7336,-2.7048,0,0,0,0,0,-2.6618,-2.67,-2.6749,-2.6868,-2.6896,-2.6922,-2.6969,-2.6969,-2.7026,-2.7049,-2.7087,-2.7144,-2.7224,-2.7278,-2.7354,-2.7501,-2.7515,-2.7567,-2.7584,-2.7597,-2.7613,-2.7694,-2.7717,-2.7462,-2.7462,-2.7462,0,0,-2.6681,-2.6725,-2.6777,-2.6882,-2.6924,-2.701,-2.6942,-2.7035,-2.7099,-2.7064,-2.7183,-2.7212,-2.7276,-2.7413,-2.7474,-2.7442,-2.7686,-2.7611,-2.7622,-2.763,-2.7707,-2.7732,-2.7753,-2.747,-2.7468,-2.7467,0,0,-2.6841,-2.6881,-2.6985,-2.7029,-2.7094,-2.711,-2.7135,-2.7195,-2.7213,-2.7333,-2.7309,-2.7384,-2.7522,-2.7569,-2.7611,-2.7788,-2.7766,-2.7812,-2.7902,-2.7981,-2.8001,-2.8019,-2.8083,-2.8106,-2.7827,-2.7827,-2.7827,0,-2.6911,-2.7039,-2.7041,-2.7136,-2.7183,-2.7154,-2.726,-2.7303,-2.739,-2.7424,-2.7385,-2.7558,-2.7599,-2.7747,-2.779,-2.7824,-2.7853,-2.7806,-2.7998,-2.8016,-2.8032,-2.8094,-2.8118,-2.7832,-2.7832,-2.7831,-2.7831,0,-2.7123,-2.7212,-2.7287,-2.7372,-2.7428,-2.7528,-2.7545,-2.7601,-2.7596,-2.7616,-2.7739,-2.7786,-2.7873,-2.7907,-2.7902,-2.8054,-2.8032,-2.7996,-2.7928,-2.8062,-2.812,-2.8144,-2.784,-2.7838,-2.7836,-2.7835,0,0,-2.7328,-2.7411,-2.7439,-2.7478,-2.7547,-2.7616,-2.7715,-2.7798,-2.7847,-2.7908,-2.7992,-2.8109,-2.8076,-2.8123,-2.8124,-2.8193,-2.8331,-2.8148,-2.815,-2.8182,-2.8503,-2.8531,-2.8558,-2.8316,-2.832,-2.8324,-2.8498,0,-2.7494,-2.7667,-2.7672,-2.7831,-2.7913,-2.7886,-2.7972,-2.8025,-2.8046,-2.812,-2.8143,-2.8227,-2.8176,-2.8205,-2.8272,-2.83,-2.8396,-2.8287,-2.8395,-2.8399,-2.8382,-2.8588,-2.8619,-2.8781,-2.852,-2.8524,-2.8527,0,-2.7712,-2.7779,-2.7947,-2.8004,-2.8039,-2.8117,-2.8194,-2.8264,-2.8323,-2.8333,-2.8386,-2.8376,-2.8478,-2.8405,-2.8545,-2.8471,-2.8515,-2.8536,-2.8542,-2.8554,-2.8473,-2.8608,-2.8832,-2.8858,-2.8563,-2.856,-2.8557,0,-2.7846,-2.7979,-2.8096,-2.813,-2.82,-2.8255,-2.8287,-2.8341,-2.8391,-2.8458,-2.8491,-2.8569,-2.8613,-2.8674,-2.8685,-2.8631,-2.8827,-2.8754,-2.884,-2.884,-2.8884,-2.8882,-2.9121,-2.8909,-2.8909,-2.8908,-2.8908,0,-2.8033,-2.8137,-2.8158,-2.8231,-2.8346,-2.835,-2.8465,-2.8492,-2.854,-2.8618,-2.8599,-2.8672,-2.8682,-2.8758,-2.8768,-2.8883,-2.8902,-2.8915,-2.8916,-2.8918,-2.8917,-2.8949,-2.8938,-2.8915,-2.8913,-2.8912,-2.8911,0,-2.8205,-2.8222,-2.8349,-2.8405,-2.8421,-2.8504,-2.8552,-2.8622,-2.864,-2.8739,-2.8762,-2.8792,-2.8881,-2.8898,-2.9002,-2.9008,-2.9147,-2.9136,-2.9127,-2.9127,-2.9212,-2.9204,-2.9482,-2.9519,-2.9281,-2.9283,-2.9285,0,-2.8324,-2.8403,-2.8467,-2.8518,-2.8552,-2.8634,-2.8685,-2.8691,-2.8745,-2.8817,-2.8879,-2.8965,-2.9035,-2.9177,-2.9209,-2.9289,-2.9281,-2.9373,-2.9293,-2.9292,-2.9285,-2.9281,-2.929,-2.9389,-2.9391,-2.9394,-2.9395,0,-2.8534,-2.8539,-2.8613,-2.869,-2.8752,-2.8813,-2.8871,-2.8914,-2.8928,-2.8989,-2.908,-2.9134,-2.924,-2.9327,-2.9406,-2.9439,-2.9421,-2.942,-2.9444,-2.9447,-2.944,-2.9447,-2.9171,-2.9414,-2.9412,-2.9411,-2.941,-2.9409,-2.8684,-2.8754,-2.881,-2.8893,-2.8937,-2.8992,-2.9061,-2.9088,-2.9163,-2.925,-2.9249,-2.9348,-2.9404,-2.9509,-2.9547,-2.9625,-2.9596,-2.9631,-2.964,-2.965,-2.9658,-2.9425,-2.964,-2.9639,-2.9639,-2.9638,-2.9638,0,-2.8895,-2.893,-2.9006,-2.9088,-2.9154,-2.9129,-2.9192,-2.9249,-2.9336,-2.939,-2.9459,-2.9563,-2.9646,-2.9684,-2.9766,-2.9821,-2.9815,-2.9843,-2.984,-2.9848,-2.9679,-2.965,-2.9847,-2.9847,-2.9847,-2.9847,-2.9847,-2.9847,-2.9013,-2.913,-2.9141,-2.928,-2.9313,-2.941,-2.9449,-2.9499,-2.9542,-2.9659,-2.9729,-2.9752,-2.98,-2.9885,-2.9961,-2.997,-3.0002,-3.0035,-3.004,-2.9881,-2.986,-2.984,-2.9814,-3.0041,-3.0042,-3.0203,-3.0205,-3.0206]},{"header":{"parameterUnit":"m.s-1","parameterCategory":1,"la1":30.2991,"la2":30.254,"lo1":-89.0895,"lo2":-89.0444,"dy":0.0017,"dx":0.0017,"nx":28,"ny":28,"refTime":"2024-09-25T09:00:00:Z","depth":0,"parameterNumber":3,"parameterNumberName":"V-component_of_WINDS"},"data":[0,0,0,0,0,0,0,0,0,0,0,0,0,0,0,0,0,0,0,0,0,0,0,0,0,0,0,0,0,0,0,0,0,0,0,0,0,0,0,0,0,0,0,0,0,0,0,0,0,0,0,0,0,0,0,0,0,0,-5.7291,-5.7292,0,-5.7327,-5.7327,-5.7328,-5.7236,-5.7233,-5.723,-5.7228,-5.7262,-5.7266,-5.7269,0,0,0,0,0,0,0,0,0,0,0,0,0,-5.7139,-5.7143,-5.7291,-5.7292,-5.7292,-5.7327,-5.7327,-5.7328,-5.7237,-5.7233,-5.723,-5.7226,-5.7261,-5.7265,-5.7269,0,0,0,0,0,0,0,0,0,0,0,0,0,-5.7193,-5.7144,-5.7291,-5.7251,-5.7247,-5.7327,-5.7328,-5.7328,-5.7237,-5.7233,-5.7229,-5.7225,-5.7259,-5.7265,-5.727,-5.739,0,0,-5.7286,-5.7289,0,0,0,0,0,0,0,0,-5.719,-5.7199,-5.7256,-5.7254,-5.725,-5.7273,-5.7286,-5.7349,-5.7238,-5.7241,-5.7227,-5.7222,-5.7269,-5.7273,-5.7289,-5.7391,-5.7393,-5.7287,-5.729,-5.7293,-5.7294,0,0,0,0,0,0,0,-5.7187,-5.7197,-5.7305,-5.7257,-5.7253,-5.7229,-5.7232,-5.7298,-5.7279,-5.724,-5.7234,-5.724,-5.7266,-5.7284,-5.7289,-5.7393,-5.7287,-5.7292,-5.7295,-5.7297,-5.7593,-5.7597,0,0,0,0,0,0,-5.7189,-5.7194,-5.7304,-5.7306,-5.7209,-5.7236,-5.7239,-5.727,-5.7278,-5.7275,-5.7243,-5.7235,-5.7277,-5.7283,-5.729,-5.743,-5.7292,-5.7298,-5.7301,-5.7588,-5.7594,-5.7599,0,0,0,0,0,0,-5.7186,-5.7199,-5.7303,-5.7249,-5.726,-5.7243,-5.7278,-5.7273,-5.7291,-5.728,-5.7276,-5.7265,-5.7274,-5.7283,-5.7365,-5.743,-5.73,-5.7305,-5.7583,-5.759,-5.7596,-5.7711,0,0,0,0,0,0,-5.7182,-5.7199,-5.7245,-5.725,-5.7263,-5.7379,-5.7282,-5.7277,-5.7301,-5.729,-5.73,-5.7297,-5.7271,-5.7358,-5.7371,-5.7435,-5.7309,-5.7577,-5.7586,-5.7594,-5.7701,-5.772,-5.7737,0,0,0,0,0,-5.7177,-5.7276,-5.7248,-5.7262,-5.7321,-5.7382,-5.739,-5.7359,-5.7306,-5.7352,-5.7344,-5.7297,-5.7421,-5.7367,-5.7381,-5.7448,-5.7573,-5.7583,-5.7593,-5.7693,-5.7717,-5.7737,0,0,0,0,0,0,-5.7278,-5.7276,-5.7245,-5.7349,-5.7367,-5.7367,-5.7424,-5.7386,-5.7418,-5.7407,-5.7367,-5.737,-5.7459,-5.7461,-5.7402,-5.7563,-5.7487,-5.7501,-5.7558,-5.7581,-5.7599,-5.7596,-5.7314,0,0,0,0,0,-5.7313,-5.7364,-5.7359,-5.7451,-5.7461,-5.7441,-5.7467,-5.7442,-5.7458,-5.7465,-5.7464,-5.7481,-5.7523,-5.7552,-5.7591,-5.7701,-5.77,-5.7753,-5.7771,-5.7786,-5.7798,-5.7855,-5.7878,-5.7633,-5.7633,-5.7633,0,0,-5.7385,-5.739,-5.7424,-5.7471,-5.7482,-5.7535,-5.7448,-5.7508,-5.7546,-5.7474,-5.7551,-5.7551,-5.7567,-5.7664,-5.7706,-5.7668,-5.7866,-5.7799,-5.7811,-5.7816,-5.7868,-5.7892,-5.7912,-5.764,-5.7639,-5.7638,0,0,-5.7542,-5.7552,-5.7629,-5.7641,-5.7659,-5.7644,-5.7663,-5.7669,-5.7666,-5.7744,-5.769,-5.7734,-5.7809,-5.7822,-5.7838,-5.8,-5.7956,-5.8013,-5.8108,-5.8164,-5.8183,-5.82,-5.8257,-5.8278,-5.8025,-5.8026,-5.8026,0,-5.7629,-5.7708,-5.7673,-5.7737,-5.7758,-5.7695,-5.7772,-5.7785,-5.7814,-5.783,-5.7787,-5.7878,-5.7885,-5.7983,-5.8022,-5.8038,-5.8057,-5.8012,-5.8183,-5.82,-5.8215,-5.8269,-5.829,-5.8032,-5.8032,-5.8031,-5.803,0,-5.7813,-5.7868,-5.7928,-5.7958,-5.7986,-5.8056,-5.8031,-5.8063,-5.8035,-5.8025,-5.8104,-5.8109,-5.8147,-5.8168,-5.8142,-5.8262,-5.8238,-5.819,-5.8114,-5.8246,-5.8295,-5.8316,-5.8042,-5.804,-5.8038,-5.8036,0,0,-5.8037,-5.8046,-5.8068,-5.808,-5.8094,-5.8135,-5.8201,-5.8239,-5.8267,-5.8289,-5.8342,-5.8406,-5.8361,-5.838,-5.8354,-5.8403,-5.8529,-5.8349,-5.8348,-5.8381,-5.8661,-5.8697,-5.8722,-5.85,-5.8504,-5.8507,-5.866,0,-5.8192,-5.8306,-5.8276,-5.839,-5.8439,-5.8379,-5.8436,-5.845,-5.8442,-5.8482,-5.8472,-5.8518,-5.8456,-5.8467,-5.8513,-5.8504,-5.8585,-5.8493,-5.8549,-5.8551,-5.8547,-5.8747,-5.8786,-5.893,-5.8679,-5.8682,-5.8684,0,-5.8388,-5.8418,-5.8536,-5.854,-5.856,-5.8612,-5.8643,-5.8683,-5.8696,-5.8687,-5.8708,-5.8671,-5.8734,-5.8658,-5.8744,-5.8682,-5.8703,-5.8702,-5.8707,-5.8711,-5.8626,-5.8756,-5.8975,-5.8996,-5.8715,-5.8712,-5.871,0,-5.8539,-5.8608,-5.8687,-5.8699,-5.8707,-5.8744,-5.8749,-5.8759,-5.8783,-5.8809,-5.8824,-5.8858,-5.8877,-5.8903,-5.8876,-5.8823,-5.8967,-5.8888,-5.896,-5.896,-5.8992,-5.8991,-5.9217,-5.9007,-5.9007,-5.9006,-5.9006,0,-5.8715,-5.879,-5.8755,-5.8804,-5.8885,-5.8849,-5.893,-5.8927,-5.8936,-5.8982,-5.8932,-5.8977,-5.8939,-5.8979,-5.8958,-5.9032,-5.9041,-5.9034,-5.9028,-5.9039,-5.904,-5.9052,-5.9041,-5.9012,-5.9011,-5.901,-5.9009,0,-5.8897,-5.8877,-5.8959,-5.8959,-5.896,-5.902,-5.9019,-5.9064,-5.9051,-5.911,-5.9122,-5.9103,-5.9148,-5.9123,-5.917,-5.9156,-5.9251,-5.9232,-5.9247,-5.9242,-5.9315,-5.9308,-5.9556,-5.9587,-5.9358,-5.936,-5.9362,0,-5.9011,-5.9067,-5.9072,-5.91,-5.9108,-5.9153,-5.9177,-5.9143,-5.917,-5.9189,-5.9231,-5.9272,-5.9303,-5.9377,-5.9367,-5.9401,-5.9382,-5.9466,-5.9387,-5.9395,-5.9382,-5.9379,-5.9384,-5.9482,-5.9485,-5.9487,-5.9489,0,-5.9215,-5.9201,-5.9238,-5.9272,-5.9302,-5.9327,-5.9347,-5.9372,-5.9338,-5.9371,-5.9416,-5.944,-5.9487,-5.9528,-5.9557,-5.956,-5.9519,-5.9514,-5.9532,-5.9544,-5.955,-5.9547,-5.929,-5.9509,-5.9507,-5.9505,-5.9504,-5.9503,-5.9365,-5.9412,-5.9423,-5.9465,-5.9476,-5.9496,-5.9538,-5.953,-5.9568,-5.9604,-5.9581,-5.9634,-5.9645,-5.968,-5.9689,-5.9729,-5.9695,-5.9722,-5.9729,-5.9736,-5.9745,-5.9544,-5.9734,-5.9734,-5.9733,-5.9733,-5.9732,0,-5.9566,-5.9569,-5.9609,-5.9639,-5.9672,-5.963,-5.9649,-5.968,-5.9727,-5.9741,-5.9772,-5.9824,-5.9862,-5.9855,-5.9889,-5.9923,-5.9905,-5.9933,-5.993,-5.9932,-5.9774,-5.9755,-5.9947,-5.9947,-5.9947,-5.9947,-5.9947,-5.9947,-5.9674,-5.975,-5.9738,-5.9818,-5.9821,-5.9873,-5.9888,-5.9905,-5.9915,-5.9975,-6.0007,-6.0002,-6.0007,-6.0041,-6.0074,-6.0071,-6.0086,-6.0121,-6.0111,-5.9964,-5.9943,-5.9922,-5.9904,-6.0125,-6.0125,-6.0265,-6.0266,-6.0267]}]]